Weather History for KSHD - January, 2014

Change the Weather History Date:

Friday, January 3, 2014

  Actual Average Record
Temperature  
Mean Temperature 20 °F -  
Max Temperature 26 °F 47 °F 73 °F (1997)
Min Temperature 10 °F 27 °F 6 °F (2001)
Degree Days  
Heating Degree Days 46    
Moisture  
Dew Point 4 °F    
Average Humidity 54    
Maximum Humidity 83    
Minimum Humidity 35    
Precipitation  
Precipitation 0.00 in - - ()
Sea Level Pressure  
Sea Level Pressure 30.18 in    
Wind  
Wind Speed 10 mph (NNW)    
Max Wind Speed 16 mph    
Max Gust Speed 29 mph    
Visibility 10 miles    
Events      
Averages and records for this station are not official NWS values.
T = Trace of Precipitation, MM = Missing Value Source: NWS Daily Summary

Daily Weather History Graph

Daily Weather History Graph

Search for Another Location

Airport or City:

Trip Planner

Search our weather history database for the weather conditions in past years. The results will help you decide how hot, cold, wet, or windy it might be!

Date:

Astronomy

Jan. 03, 2014 Rise Set
Actual Time 7:32 AM EST 5:07 PM EST
Civil Twilight 7:03 AM EST 5:37 PM EST
Nautical Twilight 6:30 AM EST 6:10 PM EST
Astronomical Twilight 5:58 AM EST 6:42 PM EST
Moon 8:59 AM EST 8:12 PM EST
Length of Visible Light 10h 34m
Length of Day
9h 35m
Waxing Crescent, 8% of the Moon is Illuminated
Jan 3
Waxing Crescent
Jan 7
First Quarter
Jan 15
Full
Jan 24
Last Quarter
Jan 30
New

Hourly Weather History & Observations

Time (EST) Temp. Windchill Dew Point Humidity Pressure Visibility Wind Dir Wind Speed Gust Speed Precip Events Conditions
12:15 AM 29.8 °F 20.3 °F 25.3 °F 83% 29.67 in 7.0 mi NW 11.5 mph - N/A   Overcast
12:35 AM 28.8 °F 17.9 °F 18.9 °F 67% 29.69 in 10.0 mi NW 13.8 mph 20.7 mph N/A   Mostly Cloudy
12:55 AM 26.4 °F 15.5 °F 14.7 °F 61% 29.72 in 10.0 mi WNW 12.7 mph 27.6 mph N/A   Scattered Clouds
1:15 AM 24.8 °F 11.9 °F 13.5 °F 62% 29.73 in 10.0 mi WNW 16.1 mph 20.7 mph N/A   Clear
1:35 AM 24.3 °F 11.2 °F 10.4 °F 56% 29.73 in 10.0 mi NW 16.1 mph 28.8 mph N/A   Clear
1:55 AM 23.0 °F 13.9 °F 9.5 °F 56% 29.76 in 10.0 mi WNW 8.1 mph 16.1 mph N/A   Clear
2:15 AM 22.1 °F 8.5 °F 8.1 °F 55% 29.78 in 10.0 mi West 16.1 mph 25.3 mph N/A   Scattered Clouds
2:35 AM 21.0 °F 9.3 °F 7.2 °F 55% 29.80 in 10.0 mi WNW 11.5 mph 20.7 mph N/A   Scattered Clouds
2:55 AM 20.3 °F 6.6 °F 6.4 °F 55% 29.82 in 10.0 mi NW 15.0 mph 20.7 mph N/A   Scattered Clouds
3:15 AM 19.6 °F 6.8 °F 5.9 °F 55% 29.84 in 10.0 mi NW 12.7 mph - N/A   Scattered Clouds
3:35 AM 19.2 °F 7.7 °F 5.2 °F 54% 29.87 in 10.0 mi NW 10.4 mph - N/A   Clear
3:55 AM 18.5 °F 8.4 °F 4.5 °F 54% 29.90 in 10.0 mi NNW 8.1 mph - N/A   Clear
4:15 AM 18.3 °F 6.6 °F 3.7 °F 53% 29.92 in 10.0 mi NNW 10.4 mph - N/A   Clear
4:35 AM 17.6 °F 5.7 °F 4.3 °F 56% 29.95 in 10.0 mi North 10.4 mph - N/A   Scattered Clouds
4:55 AM 17.4 °F 6.2 °F 3.6 °F 55% 29.97 in 10.0 mi NNW 9.2 mph 20.7 mph N/A   Scattered Clouds
5:15 AM 16.9 °F 4.8 °F 1.9 °F 52% 29.99 in 10.0 mi NNW 10.4 mph - N/A   Scattered Clouds
5:35 AM 16.3 °F 4.9 °F 2.1 °F 54% 30.02 in 10.0 mi NNW 9.2 mph - N/A   Scattered Clouds
5:55 AM 15.8 °F 2.7 °F 1.8 °F 54% 30.05 in 10.0 mi NNW 11.5 mph 18.4 mph N/A   Scattered Clouds
6:15 AM 15.8 °F 2.7 °F 1.4 °F 53% 30.06 in 10.0 mi NNW 11.5 mph 16.1 mph N/A   Scattered Clouds
6:35 AM 15.6 °F 2.5 °F 1.4 °F 54% 30.07 in 10.0 mi NW 11.5 mph 17.3 mph N/A   Mostly Cloudy
6:55 AM 15.4 °F 3.8 °F 2.1 °F 56% 30.08 in 10.0 mi NW 9.2 mph - N/A   Scattered Clouds
7:15 AM 15.3 °F 2.0 °F 2.3 °F 57% 30.11 in 10.0 mi NNW 11.5 mph 17.3 mph N/A   Clear
7:35 AM 15.4 °F 8.1 °F 1.9 °F 55% 30.14 in 10.0 mi North 4.6 mph - N/A   Mostly Cloudy
7:55 AM 15.1 °F 5.2 °F 1.8 °F 56% 30.15 in 10.0 mi NNW 6.9 mph - N/A   Scattered Clouds
8:15 AM 15.8 °F 2.7 °F 2.1 °F 55% 30.16 in 10.0 mi NNW 11.5 mph 19.6 mph N/A   Clear
8:35 AM 16.3 °F 2.1 °F 2.1 °F 54% 30.17 in 10.0 mi NW 13.8 mph 19.6 mph N/A   Clear
8:55 AM 16.7 °F 3.2 °F 1.4 °F 51% 30.19 in 10.0 mi NNW 12.7 mph 18.4 mph N/A   Clear
9:15 AM 17.4 °F 4.7 °F 2.3 °F 52% 30.20 in 10.0 mi NNW 11.5 mph - N/A   Clear
9:35 AM 17.8 °F 3.4 °F 1.9 °F 50% 30.22 in 10.0 mi NNW 15.0 mph - N/A   Clear
9:55 AM 18.5 °F 4.9 °F 2.7 °F 50% 30.22 in 10.0 mi NNW 13.8 mph 18.4 mph N/A   Clear
10:15 AM 18.5 °F 4.3 °F 1.9 °F 49% 30.24 in 10.0 mi NNW 15.0 mph 20.7 mph N/A   Clear
10:35 AM 19.2 °F 6.4 °F 2.8 °F 49% 30.24 in 10.0 mi NNW 12.7 mph 18.4 mph N/A   Clear
10:55 AM 20.1 °F 8.8 °F 3.6 °F 49% 30.24 in 10.0 mi NW 10.4 mph - N/A   Clear
11:15 AM 20.3 °F 9.0 °F 2.3 °F 46% 30.24 in 10.0 mi NNW 10.4 mph 16.1 mph N/A   Clear
11:35 AM 21.2 °F 9.5 °F 3.0 °F 46% 30.25 in 10.0 mi NNW 11.5 mph 20.7 mph N/A   Clear
11:55 AM 21.4 °F 9.1 °F 2.7 °F 44% 30.24 in 10.0 mi NNW 12.7 mph 20.7 mph N/A   Clear
12:15 PM 21.9 °F 11.0 °F 3.0 °F 44% 30.24 in 10.0 mi NW 10.4 mph 18.4 mph N/A   Clear
12:35 PM 22.1 °F 12.0 °F 1.4 °F 41% 30.25 in 10.0 mi NNW 9.2 mph - N/A   Clear
12:55 PM 22.1 °F 11.3 °F 0.7 °F 39% 30.26 in 10.0 mi NNW 10.4 mph 18.4 mph N/A   Clear
1:15 PM 22.5 °F 11.7 °F 1.0 °F 40% 30.27 in 10.0 mi NNW 10.4 mph 16.1 mph N/A   Clear
1:35 PM 23.0 °F 12.4 °F 1.6 °F 40% 30.27 in 10.0 mi NNW 10.4 mph - N/A   Clear
1:55 PM 23.2 °F 14.1 °F 2.3 °F 41% 30.28 in 10.0 mi North 8.1 mph - N/A   Clear
2:15 PM 23.2 °F 14.1 °F 1.0 °F 38% 30.28 in 10.0 mi North 8.1 mph - N/A   Clear
2:35 PM 23.7 °F 14.0 °F 1.0 °F 38% 30.28 in 10.0 mi NNE 9.2 mph - N/A   Clear
2:55 PM 23.7 °F 15.6 °F 0.5 °F 37% 30.30 in 10.0 mi North 6.9 mph - N/A   Clear
3:15 PM 23.5 °F 16.4 °F -0.0 °F 36% 30.30 in 10.0 mi NNE 5.8 mph - N/A   Clear
3:35 PM 23.5 °F 16.4 °F 0.3 °F 37% 30.31 in 10.0 mi North 5.8 mph - N/A   Clear
3:55 PM 23.5 °F 16.4 °F -0.4 °F 35% 30.32 in 10.0 mi NNW 5.8 mph - N/A   Clear
4:15 PM 23.0 °F 17.0 °F 0.3 °F 37% 30.32 in 10.0 mi NNE 4.6 mph - N/A   Clear
4:35 PM 22.8 °F 16.7 °F -0.6 °F 36% 30.34 in 10.0 mi NNE 4.6 mph - N/A   Clear
4:55 PM 21.9 °F 17.2 °F 0.7 °F 40% 30.34 in 10.0 mi North 3.5 mph - N/A   Clear
5:15 PM 19.4 °F 12.8 °F 3.2 °F 49% 30.34 in 10.0 mi NNE 4.6 mph - N/A   Clear
5:35 PM 17.2 °F 11.9 °F 5.0 °F 59% 30.35 in 10.0 mi NE 3.5 mph - N/A   Clear
5:55 PM 17.6 °F 10.7 °F 4.1 °F 56% 30.35 in 10.0 mi NNE 4.6 mph - N/A   Clear
6:15 PM 17.2 °F 10.2 °F 3.6 °F 55% 30.36 in 10.0 mi NE 4.6 mph - N/A   Clear
6:35 PM 15.3 °F 6.6 °F 4.5 °F 62% 30.37 in 10.0 mi NE 5.8 mph - N/A   Clear
6:55 PM 17.6 °F 12.3 °F 2.7 °F 52% 30.38 in 10.0 mi North 3.5 mph - N/A   Clear
7:15 PM 17.4 °F - 2.1 °F 51% 30.39 in 10.0 mi Calm Calm - N/A   Clear
7:35 PM 15.3 °F - 3.9 °F 61% 30.39 in 10.0 mi Calm Calm - N/A   Clear
7:55 PM 16.3 °F - 2.1 °F 54% 30.40 in 10.0 mi Calm Calm - N/A   Clear
8:15 PM 14.9 °F - 4.1 °F 62% 30.40 in 10.0 mi Calm Calm - N/A   Clear
8:35 PM 14.9 °F - 3.6 °F 61% 30.40 in 10.0 mi Calm Calm - N/A   Clear
8:55 PM 12.0 °F - 3.9 °F 70% 30.40 in 10.0 mi Calm Calm - N/A   Clear
9:15 PM 11.1 °F 3.1 °F 4.6 °F 75% 30.41 in 10.0 mi NW 4.6 mph - N/A   Clear
9:35 PM 12.0 °F - 4.6 °F 72% 30.42 in 10.0 mi Calm Calm - N/A   Clear
9:55 PM 11.7 °F - 4.1 °F 72% 30.42 in 10.0 mi Calm Calm - N/A   Clear
10:15 PM 12.2 °F - 4.8 °F 72% 30.42 in 10.0 mi Calm Calm - N/A   Clear
10:35 PM 11.1 °F - 5.0 °F 76% 30.42 in 10.0 mi Calm Calm - N/A   Clear
10:55 PM 10.2 °F - 4.1 °F 76% 30.41 in 10.0 mi Calm Calm - N/A   Clear
11:15 PM 10.2 °F - 5.2 °F 80% 30.42 in 10.0 mi Calm Calm - N/A   Clear
11:35 PM 11.3 °F 5.1 °F 4.8 °F 75% 30.42 in 10.0 mi SSE 3.5 mph - N/A   Clear
11:55 PM 10.9 °F - 5.5 °F 79% 30.42 in 10.0 mi Calm Calm - N/A   Clear